Location: ICStars Ranch
(38.8297°N, 93.7687°W)
Time: 09:03:20
(UTC-05:00)

Daily predictions for brighter satellites

Satellite Brightness Start Highest point End
(mag) Time Altitude Azimuth Time Altitude Azimuth Time Altitude Azimuth
Cosmos 1437 Rocket 4.0 21:13:58 10° NNE 21:17:05 24° ENE 21:20:14 10° SE
Cosmos 968 Rocket 3.5 21:13:13 10° S 21:18:19 66° ESE 21:23:30 10° NNE
GPS 2-04 Rocket1 3.7 21:15:42 10° W 21:19:46 38° SSW 21:23:46 10° SE
H-2A R/B 3.8 21:18:00 10° S 21:21:44 46° W 21:25:26 10° NNW
Cosmos 2026 Rocket 4.2 21:15:51 10° S 21:21:55 78° W 21:28:06 10° N
Cosmos 1151 Rocket 4.4 21:18:29 10° NNE 21:21:55 23° ENE 21:25:21 10° SE
Cosmos 1076 Rocket 4.4 21:17:52 10° SSW 21:22:01 53° W 21:26:15 10° N
deb Kosmos-1763 4.4 21:20:21 10° SSW 21:24:12 77° WNW 21:28:08 10° NNE
Meteor 1-21 Rocket 4.3 21:22:03 10° S 21:27:29 58° E 21:32:54 10° NNE
Cosmos 2292 4.4 21:29:43 10° N 21:32:41 53° E 21:35:49 10° SSE
CZ-4 DEB 4.4 21:31:59 10° SSW 21:34:55 33° W 21:37:52 10° NNW
Envisat 3.2 21:31:10 10° SSE 21:36:09 60° ENE 21:41:09 10° N
H-2A R/B 2.2 21:31:53 10° SSE 21:36:23 78° ENE 21:40:56 10° N
ATLAS 5 CENTAUR R/B 4.3 21:33:13 10° WSW 21:37:25 28° NW 21:41:54 10° NNE
DELTA 2 R/B (1) 3.6 21:34:06 10° W 21:39:40 84° N 21:45:14 10° E
Cosmos 1328 Rocket 3.6 21:37:51 10° N 21:42:19 88° W 21:46:46 10° S
S3M 4.0 21:38:26 10° N 21:44:34 86° W 21:50:42 10° S
Cosmos 2058 4.5 21:42:56 14° ESE 21:44:57 19° E 21:47:49 10° NE
Cosmos 371 Rocket 3.5 21:40:32 10° NNW 21:45:20 72° WSW 21:50:06 10° S
ERS-1 Rocket 3.4 21:40:45 10° S 21:45:43 64° WSW 21:50:44 10° NNW
Cosmos 2228 Rocket 3.7 21:43:01 10° NNW 21:47:25 59° W 21:51:51 10° S
YAOGAN 6 3.7 21:46:03 15° SE 21:48:26 30° ENE 21:51:38 10° N
SPOT 5 2.8 21:45:54 12° SSE 21:49:57 62° ENE 21:54:38 10° N
ALOS 4.4 21:47:35 10° SSW 21:51:20 24° W 21:55:05 10° NW
Cosmos 1777 Rocket 4.0 21:46:59 10° SSW 21:52:15 81° ESE 21:57:32 10° NNE
Cosmos 2219 Rocket 4.4 21:50:26 10° NNE 21:52:21 12° NE 21:54:14 10° ENE
Cosmos 405 3.5 21:49:54 10° N 21:53:25 45° ENE 21:55:46 18° SE
Cosmos 1437 3.6 21:52:16 18° SSE 21:54:09 32° E 21:57:08 10° NNE
Cosmos 1743 Rocket 4.4 21:49:51 10° SSW 21:54:13 53° W 21:58:36 10° N
MetOp-A 4.2 21:54:51 14° SSE 21:59:23 64° ENE 22:04:42 10° N
ARGOS 3.9 21:55:49 16° SE 21:59:36 37° ENE 22:04:31 10° N
Cosmos 1500 Rocket 3.9 21:56:38 10° SSW 22:00:57 67° W 22:05:20 10° N
H-2A R/B 3.7 22:00:41 13° ESE 22:03:47 21° ENE 22:07:44 10° NNE
UNK 4.5 22:00:13 10° NNE 22:06:22 72° ESE 22:12:39 10° S
CZ-2C R/B 3.0 22:05:56 10° WSW 22:06:31 11° W 22:07:05 10° WNW
Cosmos 2219 3.6 22:02:24 10° S 22:07:47 43° ESE 22:13:11 10° NE
NOSS 3-1 (C) 3.9 22:04:39 10° S 22:09:51 35° ESE 22:15:28 10° NE
Cosmos 1441 Rocket 4.4 22:06:28 10° SSW 22:10:04 41° WNW 22:13:39 10° N
PSLV R/B 3.3 22:10:10 21° S 22:12:06 70° W 22:15:10 10° NNW
ATLAS CENTAUR R/B 3.4 22:10:03 10° WNW 22:13:28 22° WSW 22:16:41 10° SSW
SPOT 1/Viking Rocket 3.7 22:12:06 21° SSE 22:15:31 61° ENE 22:20:37 10° N
OE (NEXTSAT) 4.3 22:13:32 10° WNW 22:17:07 85° NNE 22:18:48 29° ESE
Cosmos 2322 3.8 22:11:33 10° NNW 22:17:17 68° ENE 22:20:54 23° SE
Delta 2 Rocket 3.3 22:14:06 10° WSW 22:17:20 36° SSE 22:17:57 33° SE
Cosmos 883 Rocket 4.5 22:12:33 10° N 22:18:48 88° E 22:23:50 16° S
Cosmos 2237 Rocket 4.4 22:16:47 10° NNE 22:19:25 13° NE 22:22:02 10° ENE
Cosmos 1726 3.4 22:18:23 10° NNE 22:21:36 26° ENE 22:22:28 24° E
Cosmos 1680 Rocket 3.5 22:16:33 10° NNW 22:21:48 69° ENE 22:24:52 25° SSE
Cosmos 2322 Rocket 3.4 22:18:02 10° NW 22:23:06 36° WSW 22:28:08 10° S
Cosmos 923 Rocket 4.0 22:19:52 10° NNW 22:25:05 84° WSW 22:28:22 23° SSE
AVUM R/B 4.4 22:24:49 10° SW 22:26:53 30° WNW 22:29:07 10° N
USA 245 2.2 22:26:25 53° SE 22:26:55 73° ENE 22:29:24 10° N
Cosmos 1908 4.1 22:26:16 10° NNW 22:30:00 45° W 22:32:47 17° SSW
Cosmos 304 Rocket 3.7 22:25:32 10° NNW 22:30:23 87° ENE 22:32:54 28° SSE
SL-16 R/B 3.6 22:27:25 10° NW 22:32:24 32° WSW 22:37:15 10° SSW
Cosmos 2360 Rocket 2.2 22:28:32 10° NNW 22:34:12 85° WSW 22:37:27 27° SSE
CZ-4B R/B 3.6 22:29:04 10° NNE 22:34:22 81° WNW 22:39:32 10° SSW
NOAA 11 4.2 22:31:18 26° SSE 22:34:25 73° ENE 22:39:52 10° N
Cosmos 1898 Rocket 4.0 22:33:17 29° SE 22:35:08 39° ESE 22:39:57 10° NE
Landsat 7 4.2 22:35:02 30° SE 22:36:58 48° ENE 22:41:33 10° N
Meteor 1-11 4.3 22:33:41 22° S 22:37:28 65° E 22:43:09 10° NNE
Cosmos 2315 Rocket 3.9 22:32:00 10° N 22:38:15 89° E 22:42:17 23° S
Cosmos 1633 Rocket 3.2 22:42:16 38° SE 22:43:34 52° E 22:47:50 10° NNE
Sich 1 3.2 22:42:31 37° SSE 22:43:59 57° E 22:48:19 10° NNE
Cosmos 2151 4.2 22:46:46 10° SSW 22:50:37 39° WNW 22:54:36 10° N
Terra 2.2 22:51:23 36° ESE 22:52:50 48° ENE 22:57:24 10° N
Cosmos 1805 Rocket 3.9 22:54:12 23° SSW 22:56:51 62° W 23:01:17 10° N
Cosmos 2227 Rocket 3.1 22:57:45 28° ESE 22:57:57 28° ESE 23:02:42 10° NE
Meteor 1-4 Rocket 3.0 22:54:42 10° N 22:58:22 48° ENE 22:58:33 47° E
Cosmos 1626 3.8 22:59:43 21° ENE 22:59:43 21° ENE 23:01:56 10° NE
Cosmos 1300 2.8 22:55:30 10° NNW 22:59:20 73° W 23:00:11 50° SSW
SeaSat 1 4.4 22:58:28 14° E 23:00:43 19° NE 23:04:10 10° N
CZ-4 R/B 4.5 22:59:17 10° N 23:04:08 57° WNW 23:07:46 17° SSW
USA 32 4.0 22:59:30 10° N 23:04:47 73° E 23:06:29 43° SSE
Cosmos 2333 Rocket 3.3 22:59:51 10° N 23:04:59 32° ENE 23:07:11 25° E
CZ-4C R/B 3.1 23:07:42 63° SW 23:07:59 67° WSW 23:11:27 10° NNW
Spot 2 4.5 23:05:21 10° NNE 23:10:26 60° E 23:11:31 48° SSE
Nadezhda 1 Rocket 4.2 23:04:33 10° N 23:10:30 54° E 23:12:27 39° SE
SL-16 R/B 4.4 23:07:28 10° NNE 23:10:41 15° NE 23:13:40 11° E
NOSS 3-1 (A) 3.3 23:07:21 17° SSW 23:11:55 80° ESE 23:18:23 10° NE
Cosmos 1707 Rocket 4.3 23:12:17 10° NNW 23:16:28 47° W 23:17:49 35° SW
COSMOS 2428 2.7 23:11:03 10° NNW 23:16:45 79° WSW 23:18:35 45° S
Cosmos 1666 Rocket 4.3 23:16:59 28° SW 23:18:55 48° W 23:23:12 10° N
Cosmos 1745 Rocket 3.9 23:17:11 37° S 23:19:49 82° E 23:26:03 10° N
Cosmos 1455 3.0 23:18:44 10° N 23:21:56 40° ENE 23:21:56 40° ENE
SL-08 R/B 4.5 23:19:46 32° SSW 23:22:49 81° W 23:29:07 10° N
Cosmos 2297 Rocket 3.0 23:25:45 33° E 23:25:45 33° E 23:30:31 10° NE
DELTA 2 R/B (1) 3.6 23:20:37 10° W 23:26:03 56° SSW 23:26:42 53° S
SL-23 DEB 4.3 23:23:49 10° WNW 23:27:14 45° W 23:27:14 45° W
Cosmos 1709 Rocket 4.5 23:27:29 38° ESE 23:28:31 41° E 23:34:10 10° NNE
Cosmos 1470 Rocket 3.3 23:31:55 79° S 23:32:10 90° E 23:36:31 10° N
Cosmos 1933 Rocket 3.4 23:33:20 76° S 23:33:40 89° ESE 23:38:11 10° N
ATLAS 2AS CENTAUR R/B 3.2 23:32:40 41° SSE 23:34:30 49° ESE 23:42:06 10° NE
Cosmos 2219 Rocket 2.1 23:31:38 10° NNW 23:37:15 76° ENE 23:38:24 57° SE
Cosmos 1937 Rocket 3.6 23:36:51 42° SW 23:38:38 74° WNW 23:43:52 10° NNE
COSMOS 2455 4.3 23:34:22 10° N 23:39:26 27° NE 23:42:07 20° E
Cosmos 220 Rocket 4.1 23:38:58 64° WSW 23:39:28 73° WNW 23:43:54 10° NNE
H-2A R/B 2.7 23:41:19 39° SW 23:42:47 49° W 23:48:02 10° NNW
Cosmos 1703 4.2 23:42:49 40° W 23:43:14 41° W 23:46:58 10° N
IGS 5A 4.0 23:43:56 48° WSW 23:44:06 48° W 23:48:09 10° NNW
Cosmos 2181 Rocket 4.4 23:43:19 10° N 23:49:30 50° E 23:50:50 43° ESE
Cosmos 1271 Rocket 3.9 23:46:41 10° NNW 23:50:04 35° W 23:50:04 35° W
Cosmos 1980 3.7 23:45:15 10° NNW 23:50:55 71° ENE 23:51:50 59° ESE
Cosmos 1386 Rocket 4.4 23:49:17 47° SSW 23:51:07 77° W 23:57:09 10° N
Cosmos 990 Rocket 4.0 23:53:27 57° SW 23:54:26 75° WNW 23:59:35 10° NNE
Cosmos 1726 4.4 23:54:15 10° NW 23:56:45 17° W 23:57:09 17° W
